This demonstration page uses our WeatherBlox Daily Observations layout. Learn more.

38.88101, -77.10428

Hourly Observations for April 29, 2020

Temp ( °F °C ) Dew Point ( °F °C ) Humidity (%) Winds ( mph kmh ) Pressure ( in mb ) Visibility ( mi km ) Precip ( " mm )
12:52 am 00:52 Mostly Clear 51 10.6 47 8.3 86 86 Calm 30.1 1019 10 16.0934 0 0
1:52 am 01:52 Mostly Clear 50 10 47 8.3 89 89 ENE 3 6 30.1 1019 10 16.0934 0 0
2:52 am 02:52 Mostly Cloudy 50 10 47 8.3 89 89 NE 5 7 30.09 1019 10 16.0934 0 0
3:52 am 03:52 Mostly Cloudy 50 10 44 6.7 80 80 NE 5 7 30.06 1018 10 16.0934 0 0
4:52 am 04:52 Mostly Cloudy 48 8.9 43 6.1 83 83 NNE 5 7 30.05 1018 10 16.0934 0 0
5:52 am 05:52 Mostly Clear 48 8.9 43 6.1 83 83 NE 6 9 30.04 1017 10 16.0934 0 0
6:52 am 06:52 Mostly Sunny 48 8.9 44 6.7 86 86 NE 3 6 30.05 1018 10 16.0934 0 0
7:52 am 07:52 Mostly Sunny 51 10.6 45 7.2 80 80 N 6 9 30.07 1018 10 16.0934 0 0
8:52 am 08:52 Mostly Sunny 56 13.3 48 8.9 75 75 NNE 3 6 30.06 1018 10 16.0934 0 0
9:52 am 09:52 Partly Cloudy 63 17.2 53 11.7 70 70 Calm 30.04 1017 10 16.0934 0 0
10:52 am 10:52 Cloudy 64 17.8 54 12.2 70 70 Calm 30.04 1017 10 16.0934 0 0
11:52 am 11:52 Cloudy 68 20 56 13.3 65 65 S 6 9 30.03 1017 10 16.0934 0 0
12:52 pm 12:52 Cloudy 70 21.1 56 13.3 61 61 S 7 11 30.01 1016 10 16.0934 0 0
1:52 pm 13:52 Cloudy 72 22.2 56 13.3 57 57 S 7 11 30.01 1016 10 16.0934 0 0
2:52 pm 14:52 Mostly Cloudy 74 23.3 55 12.8 52 52 SSE 10 17 29.99 1016 10 16.0934 0 0
3:52 pm 15:52 Mostly Cloudy 74 23.3 56 13.3 54 54 SSE 13 20 29.96 1015 10 16.0934 0 0
4:52 pm 16:52 Mostly Cloudy 73 22.8 56 13.3 55 55 ESE 16 26 29.97 1015 10 16.0934 0 0
5:52 pm 17:52 Mostly Cloudy 72 22.2 55 12.8 55 55 ESE 12 19 29.96 1014 10 16.0934 0 0
6:52 pm 18:52 Cloudy 71 21.7 55 12.8 57 57 ESE 14 22 29.95 1014 10 16.0934 0 0
7:52 pm 19:52 Mostly Cloudy 70 21.1 56 13.3 61 61 ESE 20 31 29.93 1014 10 16.0934 0 0
8:52 pm 20:52 Mostly Cloudy 68 20 56 13.3 65 65 SE 15 24 29.92 1013 10 16.0934 0 0
9:52 pm 21:52 Mostly Cloudy 67 19.4 57 13.9 71 71 SE 12 19 29.93 1014 10 16.0934 0 0
10:52 pm 22:52 Cloudy 67 19.4 58 14.4 73 73 SSE 14 22 29.93 1014 10 16.0934 0 0
11:52 pm 23:52 Cloudy 67 19.4 58 14.4 73 73 SSE 15 24 29.92 1013 10 16.0934 0 0

Powered by AerisWeather